CZ-4 DEB, 26151

Orbit data source: Space-Track

CZ-4 DEB, 26151 is space debris in SSO originally from a launch on Thu, 14 Oct 1999 UTC launched from the Taiyaun Space Center, China (TSC). Debris objects in space refer to the collection of defunct objects orbiting the Earth. Examples of debris include non-operational satellites, rocket bodies, and fragments generated from explosions, collisions, or faulty payload assembly.

Loading next visibility...
CZ-4 DEB details
Identifier
26151, 1999-057AM
Orbit
SSO
Last TLE update17 hours ago
Origin
Flag of CNCNSA (CN / PRC)
ManufacturerUnknown
MissionSpacecraft
Bus & MotorUnknown
MassUnknown
Launch date (UTC)
1999-10-14 (25 years ago)
Launch vehicleUnknown
Launch site
Taiyaun Space Center, China (TSC)
Object type
Payload
Rocket body
Debris
Shape & HBRUnknown
Radar Cross SectionMedium (>0.1 m² and <1 m²)

Expand to show TLE details & history

TLE from 17 hours ago
0 CZ-4 DEB
1 26151U 99057AM  24355.89055639  .00002188  00000-0  20981-2 0  9990
2 26151  99.3974 332.6831 0617785  21.2500   7.9517 13.18252117187239
Epoch: 2024-12-20T21:22Z
Definitive object data (Epoch: 2024-12-20T21:22:24.072Z)
Latitude29.86829°
Longitude-83.29106°
Altitude732.392 km
Speed7.717 km/s
True Right ascension21h 49m 02s
True Declination29° 43' 10"
Sunlit
Object was in daylight at TLE epoch
Visualization TLE readout
Latitude80.17174°
Longitude-149.11567°
Altitude1,000.563 km
Speed7.457 km/s
Apparent Right ascension00h 04m 46s
Apparent Declination35° 05' 15"
Sunlit
Object is in daylight
Visualization observer readout
Local Sidereal Time13:03:39
Azimuth12.362° NNE
Elevation-13.778°
Doppler factor1
Orbital elements
Apogee altitude1,656.186 km
Perigee altitude721.248 km
Semi-major axis7,566.854 km
Eccentricity0.0617785
Inclination99.3974°
RAAN332.6831°
Arg. of periapsis21.25°
True anomaly9.01178°
Mean anomaly7.9517°
Eccentric anomaly8.47326°
Mean motion3.29739 °/min
BSTAR0.0020981
Orbital period109.18 mins
Loading maneuver chart data...
Loading historical data...
Loading historical data...
Loading historical data...
Loading historical data...
Loading historical data...
Loading historical data...
Loading historical data...

CZ-4 DEB Visibility forecast

Observer location: undefined°, undefined

Span
Click to sort rows by Start time (UTC) header in descending order
Start Az.
Max El. time (UTC)
Max El. Az.
Max El.
End time (UTC)
End Az.
8 mins2024-12-21 22:51:35.850Z179.805° S2024-12-21 22:54:35.850Z232.878° WSW41.266°2024-12-21 22:59:35.850Z338.687° N
12 mins2024-12-22 10:15:35.850Z45.708° ENE2024-12-22 10:20:35.850Z92.519° ESE25.534°2024-12-22 10:27:35.850Z149.115° SSE
14 mins2024-12-22 12:02:35.850Z5.211° NNE2024-12-22 12:08:35.850Z290.078° WNW42.083°2024-12-22 12:16:35.850Z211.356° SW
5 mins2024-12-22 13:53:35.850Z317.825° NNW2024-12-22 13:55:35.850Z301.515° NW13.011°2024-12-22 13:58:35.850Z279.744° WNW
|